TimeAST,TemperatureF,Dew PointF,Humidity,Sea Level PressureIn,VisibilityMPH,Wind Direction,Wind SpeedMPH,Gust SpeedMPH,PrecipitationIn,Events,Conditions,WindDirDegrees,DateUTC
12:00 AM,82.4,75.2,79,29.92,6.2,ESE,10.4,-,N/A,,Scattered Clouds,110,2012-10-02 04:00:00
1:00 AM,82.4,77.0,84,29.89,6.2,East,12.7,-,N/A,,Scattered Clouds,100,2012-10-02 05:00:00
2:00 AM,82,76,78,29.89,25,East,12.7,,,,Partly Cloudy,100,2012-10-02 06:00:00
2:00 AM,82.4,77.0,84,29.89,6.2,East,12.7,-,N/A,,Scattered Clouds,100,2012-10-02 06:00:00
3:00 AM,82.4,77.0,84,29.86,6.2,East,13.8,-,N/A,,Scattered Clouds,100,2012-10-02 07:00:00
4:00 AM,82.4,77.0,84,29.86,6.2,East,15.0,-,N/A,,Mostly Cloudy,100,2012-10-02 08:00:00
5:00 AM,82,75,75,29.88,25,ESE,13.8,,,,Partly Cloudy,110,2012-10-02 09:00:00
5:00 AM,82.4,75.2,79,29.86,6.2,ESE,13.8,-,N/A,,Scattered Clouds,110,2012-10-02 09:00:00
6:00 AM,80.6,75.2,84,29.89,6.2,ESE,11.5,-,N/A,,Partly Cloudy,120,2012-10-02 10:00:00
7:00 AM,82.4,75.2,79,29.92,6.2,ESE,9.2,-,N/A,,Partly Cloudy,120,2012-10-02 11:00:00
8:00 AM,84,74,64,29.94,31,ESE,12.7,,,,Scattered Clouds,120,2012-10-02 12:00:00
8:00 AM,84.2,73.4,70,29.92,6.2,ESE,13.8,-,N/A,,Partly Cloudy,110,2012-10-02 12:00:00
9:00 AM,87.8,73.4,62,29.95,6.2,ESE,12.7,-,N/A,,Partly Cloudy,110,2012-10-02 13:00:00
10:00 AM,87.8,75.2,66,29.95,6.2,East,13.8,-,N/A,,Partly Cloudy,100,2012-10-02 14:00:00
11:00 AM,87.8,75.2,66,29.98,6.2,East,13.8,-,N/A,,Partly Cloudy,90,2012-10-02 15:00:00
12:00 PM,89.6,75.2,62,29.95,6.2,East,13.8,-,N/A,,Partly Cloudy,90,2012-10-02 16:00:00
1:00 PM,89.6,73.4,59,29.92,6.2,East,15.0,-,N/A,,Partly Cloudy,90,2012-10-02 17:00:00
2:00 PM,89,75,54,29.90,31,East,12.7,,,,Scattered Clouds,90,2012-10-02 18:00:00
2:00 PM,89.6,73.4,59,29.89,6.2,East,12.7,-,N/A,,Partly Cloudy,90,2012-10-02 18:00:00
3:00 PM,89.6,71.6,55,29.86,6.2,ESE,15.0,-,N/A,,Partly Cloudy,110,2012-10-02 19:00:00
4:00 PM,87.8,75.2,66,29.86,6.2,East,12.7,-,N/A,,Partly Cloudy,90,2012-10-02 20:00:00
5:00 PM,86,76,64,29.85,31,East,10.4,,,,Scattered Clouds,100,2012-10-02 21:00:00
5:00 PM,86.0,75.2,70,29.83,6.2,East,10.4,-,N/A,,Partly Cloudy,100,2012-10-02 21:00:00
6:00 PM,84.2,75.2,74,29.86,6.2,East,12.7,-,N/A,,Partly Cloudy,100,2012-10-02 22:00:00
7:00 PM,82.4,77.0,84,29.89,6.2,East,12.7,-,N/A,,Partly Cloudy,90,2012-10-02 23:00:00
8:00 PM,82,76,77,29.90,31,East,12.7,,,,Scattered Clouds,90,2012-10-03 00:00:00
8:00 PM,82.4,75.2,79,29.89,6.2,East,12.7,-,N/A,,Partly Cloudy,90,2012-10-03 00:00:00
9:00 PM,82.4,75.2,79,29.92,6.2,East,11.5,-,N/A,,Partly Cloudy,100,2012-10-03 01:00:00
10:00 PM,82.4,75.2,79,29.92,6.2,East,11.5,-,N/A,,Partly Cloudy,100,2012-10-03 02:00:00
11:00 PM,82,75,75,29.94,31,East,11.5,,,,Scattered Clouds,100,2012-10-03 03:00:00
11:00 PM,82.4,75.2,79,29.95,6.2,East,11.5,-,N/A,,Partly Cloudy,100,2012-10-03 03:00:00